Iowa City Municipal Airport
Tuesday 11:52 PM
Temperature58° (77°/54°)
Dew Point54°
Relative Humidity87
%
Visibility10
mi
Pressure1020.0
mb
Wind Direction
Wind SpeedCalm
Precipitation Today0.00"

Last 30 Observations

Time PresWx Temp DP Feels RH% Vsby Pressure Ceiling Direction Speed 1h Precip
11:52 PM 58° 54° 87
%
10
mi
1020.0
mb
Calm 0.00"
10:52 PM 59° 53° 81
%
10
mi
1020.0
mb
Calm 0.00"
9:52 PM 60° 53° 78
%
10
mi
1019.7
mb
W
260°
3
mph
0.00"
8:52 PM 65° 55° 70
%
10
mi
1019.0
mb
Calm 0.00"
7:52 PM 68° 56° 65
%
10
mi
1019.3
mb
SW
220°
5
mph
0.00"
6:52 PM 72° 49° 71°44
%
10
mi
1019.3
mb
N
10°
5
mph
0.00"
5:52 PM 73° 48° 72°41
%
10
mi
1019.3
mb
8,000
ft
N
360°
5
mph
0.00"
4:52 PM 74° 48° 73°40
%
10
mi
1020.0
mb
N
360°
7
mph
0.00"
3:52 PM 75° 48° 74°38
%
10
mi
1020.3
mb
Variable 6
mph
0.00"
2:52 PM 76° 47° 75°36
%
10
mi
1020.3
mb
NE
40°
6
mph
0.00"
1:52 PM 73° 50° 72°44
%
10
mi
1020.7
mb
Variable 3
mph
0.00"
12:52 PM 72° 49° 71°44
%
10
mi
1021.0
mb
7,500
ft
N
360°
10
mph
0.00"
11:52 AM 70° 51° 51
%
10
mi
1021.3
mb
6,000
ft
N
10°
8
mph
0.00"
10:52 AM 70° 52° 53
%
10
mi
1021.3
mb
NNW
340°
6
mph
0.00"
9:52 AM 69° 53° 57
%
10
mi
1021.3
mb
N
10°
6
mph
0.00"
8:52 AM 65° 53° 65
%
10
mi
1021.0
mb
N
350°
5
mph
0.00"
7:52 AM 62° 54° 75
%
10
mi
1020.7
mb
N
360°
5
mph
0.00"
6:52 AM 56° 53° 90
%
10
mi
1020.7
mb
WNW
300°
3
mph
0.00"
5:52 AM 55° 53° 93
%
10
mi
1020.3
mb
4,800
ft
Calm 0.00"
4:52 AM 55° 52° 89
%
10
mi
1020.3
mb
Calm 0.00"
3:52 AM 56° 53° 90
%
10
mi
1020.3
mb
Calm 0.00"
2:52 AM 59° 54° 83
%
10
mi
1020.3
mb
Calm 0.00"
1:52 AM 62° 54° 75
%
10
mi
1020.3
mb
6,500
ft
NNW
340°
3
mph
0.00"
12:52 AM 62° 53° 72
%
10
mi
1020.3
mb
NNW
340°
3
mph
0.00"
11:52 PM 61° 53° 75
%
10
mi
1020.0
mb
6,500
ft
ENE
60°
5
mph
0.00"
10:52 PM 63° 53° 70
%
10
mi
1020.0
mb
6,500
ft
NE
40°
6
mph
0.00"
9:52 PM 64° 53° 67
%
10
mi
1019.7
mb
6,500
ft
NNE
30°
6
mph
0.00"
8:52 PM 64° 52° 65
%
10
mi
1019.3
mb
7,000
ft
NE
40°
7
mph
0.00"
7:52 PM 66° 52° 61
%
10
mi
1019.3
mb
7,000
ft
NE
40°
6
mph
0.00"
6:52 PM 69° 51° 53
%
10
mi
1019.0
mb
7,000
ft
NE
50°
9
mph
0.00"